This is the latest recevied weather packets stored in our database for station/object KO4T-4. If no packets are shown the sender has not sent any weather packets the latest 10 day(s).
| Time | Temp. | Humidity | Pressure | Rain* | Wind** | Luminosity | Snow |
|---|---|---|---|---|---|---|---|
| 1777585204 | 21.67° C | 36% | 1010.2 hPa | 0 mm | - | - | - |
| 1777584904 | 21.67° C | 38% | 1010.2 hPa | 0 mm | - | - | - |
| 1777584604 | 21.67° C | 37% | 1010.3 hPa | 0 mm | - | - | - |
| 1777584304 | 21.67° C | 37% | 1010.3 hPa | 0 mm | - | - | - |
| 1777584004 | 21.67° C | 39% | 1010.4 hPa | 0 mm | - | - | - |
| 1777583704 | 21.67° C | 36% | 1010.4 hPa | 0 mm | - | - | - |
| 1777583404 | 21.67° C | 36% | 1010.5 hPa | 0 mm | - | - | - |
| 1777583103 | 21.67° C | 38% | 1010.5 hPa | 0 mm | - | - | - |
| 1777582804 | 21.67° C | 37% | 1010.4 hPa | 0 mm | - | - | - |
| 1777582504 | 21.67° C | 34% | 1010.4 hPa | 0 mm | - | - | - |
| 1777582204 | 22.22° C | 36% | 1010.3 hPa | 0 mm | - | - | - |
| 1777581904 | 22.22° C | 34% | 1010.3 hPa | 0 mm | - | - | - |
| 1777581604 | 22.22° C | 34% | 1010.2 hPa | 0 mm | - | - | - |
| 1777581304 | 22.22° C | 34% | 1010.1 hPa | 0 mm | - | - | - |
| 1777581004 | 22.78° C | 35% | 1010.1 hPa | 0 mm | - | - | - |
| 1777580703 | 22.22° C | 38% | 1010 hPa | 0 mm | - | - | - |
| 1777580404 | 22.22° C | 35% | 1009.9 hPa | 0 mm | - | - | - |
| 1777580104 | 22.22° C | 37% | 1010 hPa | 0 mm | - | - | - |
| 1777579804 | 22.22° C | 33% | 1009.9 hPa | 0 mm | - | - | - |
| 1777579504 | 22.22° C | 37% | 1010.1 hPa | 0 mm | - | - | - |
| 1777579204 | 22.22° C | 35% | 1010.3 hPa | 0 mm | - | - | - |
| 1777578903 | 22.22° C | 35% | 1010.3 hPa | 0 mm | - | - | - |
| 1777578604 | 22.22° C | 33% | 1010.3 hPa | 0 mm | - | - | - |
| 1777578304 | 22.78° C | 34% | 1010.4 hPa | 0 mm | - | - | - |
| 1777578003 | 22.22° C | 34% | 1010.3 hPa | 0 mm | - | - | - |
* Rain latest hour (hover to see other rain measurements)
** Current wind speed in m/s (hover to see current wind gust speed)